#timestamp,LO_Frequency,Hit,StdDev 
1633982415.5,286047005.6,N
1633982435.3,286047009.1,Y
1633982455.2,286047010.0,P
1633982475.0,286047011.0,N
1633982475.9,286047011.0,N
1633982495.7,286047012.5,Y
1633982515.6,286047005.6,P
1633982535.4,286047004.0,N
1633982555.3,286047001.9,N
1633982575.1,286046998.5,N
1633982576.0,286046998.5,N
1633982595.8,286047001.2,N
1633982615.7,286046998.7,N
1633982635.5,286047000.8,N
1633982655.3,286046999.6,N
1633982675.2,286046997.4,N
1633982695.0,286046995.2,N
1633982695.9,286046995.2,N
1633982715.8,286046996.3,N
1633982735.6,286046997.0,N
1633982755.4,286046997.3,N
1633982775.3,286046997.2,N
1633982795.1,286046999.3,N
1633982815.9,286046998.8,N
1633982835.7,286046997.4,N
1633982855.5,286046997.0,N
1633982875.4,286046998.7,N
1633982895.2,286047000.0,N
1633982915.1,286047000.2,N
1633982916.0,286047000.2,N
1633982935.8,286047002.6,N
1633982955.6,286047000.5,N
1633982975.5,286047000.7,N
1633982995.3,286047002.6,N
1633983015.1,286046999.0,N
1633983035.9,286047000.7,N
1633983055.7,286047000.6,N
1633983075.6,286047003.9,N
1633983095.4,286047004.4,N
1633983115.2,286047002.6,N
1633983135.1,286047000.7,N
1633983136.0,286047000.7,N
1633983155.8,286047000.6,N
1633983175.6,286046998.2,N
1633983195.5,286046999.6,N
1633983215.3,286046998.9,N
1633983235.2,286047000.6,N
1633983255.9,286047005.4,N
1633983275.7,286047002.9,N
1633983295.6,286047005.7,N
1633983315.4,286047007.3,Y
1633983335.3,286047011.0,P
1633983355.1,286047013.9,N
1633983356.0,286047013.9,N
1633983375.8,286047011.2,N
1633983395.7,286047009.3,N
1633983415.5,286047008.3,N
1633983435.3,286047008.7,N
1633983455.2,286047007.4,N
1633983475.0,286047005.8,N
1633983475.9,286047005.8,N
1633983495.8,286047001.5,N
1633983515.6,286047000.0,N
1633983535.4,286047000.6,N
1633983555.3,286046998.6,N
1633983575.1,286046998.9,N
1633983595.8,286046999.3,N
1633983615.7,286046998.5,N
1633983635.5,286046998.5,N
1633983655.4,286046999.1,N
1633983675.2,286046995.2,N
1633983695.0,286047000.3,N
1633983695.9,286047000.3,N
1633983715.8,286047001.5,N
1633983735.6,286046998.6,N
1633983755.4,286047000.6,N
1633983775.3,286047000.9,N
1633983795.1,286047000.7,N
1633983815.9,286046998.6,N
1633983835.7,286046998.4,N
1633983855.5,286047001.1,N
1633983875.4,286047001.2,N
1633983895.2,286047004.1,N
1633983915.0,286047003.2,N
1633983915.9,286047003.2,N
1633983935.8,286047001.9,N
1633983955.6,286047001.6,N
1633983975.5,286047002.7,N
1633983995.3,286047004.4,N
1633984015.1,286047004.2,N
1633984035.9,286047004.4,N
1633984055.7,286047002.0,N
1633984075.5,286047005.9,N
1633984095.4,286047005.6,N
1633984115.2,286047006.8,N
1633984135.1,286047008.6,Y
1633984136.0,286047008.6,P
1633984155.8,286047007.4,N
1633984175.6,286047005.2,N
1633984195.5,286047001.9,N
1633984215.3,286047001.8,N
1633984235.2,286047002.7,N
1633984255.9,286047001.3,N
1633984275.7,286047004.0,N
1633984295.6,286047007.5,N
1633984315.4,286047005.7,N
1633984335.2,286047005.8,N
1633984355.1,286047001.3,N
1633984356.0,286047001.3,N
1633984375.8,286047002.2,N
1633984395.7,286047000.1,N
1633984415.5,286046996.5,N
1633984435.3,286046998.7,N
1633984455.2,286046996.6,N
1633984475.0,286046998.7,N
1633984475.9,286046998.7,N
1633984495.7,286047003.0,N
1633984515.6,286047007.3,N
1633984535.4,286047007.6,N
1633984555.3,286047006.7,N
1633984575.1,286047007.5,N
1633984576.0,286047007.5,N
1633984595.8,286047006.0,N
1633984615.7,286047004.2,N
1633984635.5,286047005.8,N
1633984655.3,286047003.6,N
1633984675.2,286047001.8,N
1633984695.0,286046999.7,N
1633984695.9,286046999.7,N
1633984715.8,286047001.7,N
1633984735.6,286047001.8,N
1633984755.4,286047002.8,N
1633984775.3,286046999.9,N
1633984795.1,286047001.5,N
1633984815.9,286047002.7,N
1633984835.7,286046998.6,N
1633984855.5,286046998.6,N
1633984875.4,286046996.6,N
1633984895.2,286046997.3,N
1633984915.0,286046996.6,N
1633984915.9,286046996.6,N
1633984935.8,286046999.2,N
1633984955.6,286046996.9,N
1633984975.5,286046999.6,N
1633984995.3,286046996.8,N
1633985015.1,286046996.8,N
1633985035.9,286046996.5,N
1633985055.7,286046997.3,N
1633985075.5,286046995.8,N
1633985095.4,286046997.3,N
1633985115.2,286047001.1,N
1633985135.1,286047001.6,N
1633985136.0,286047001.6,N
1633985155.8,286047003.5,N
1633985175.6,286047003.5,N
1633985195.5,286047005.9,N
1633985215.3,286047003.0,N
1633985235.1,286047004.5,N
1633985255.9,286047006.3,N
1633985275.7,286047007.4,N
1633985295.6,286047005.1,N
1633985315.4,286047005.6,N
1633985335.2,286047004.4,N
1633985355.1,286047001.8,N
1633985356.0,286047001.8,N
1633985375.8,286047005.6,N
1633985395.7,286047003.1,N
1633985415.5,286047003.6,N
1633985435.3,286047003.2,N
1633985455.2,286047004.0,N
1633985475.0,286047001.6,N
1633985475.9,286047001.6,N
1633985495.7,286047001.0,N
1633985515.6,286047004.3,N
1633985535.4,286047006.4,N
1633985555.3,286047013.4,Y
1633985575.1,286047013.3,P
1633985576.0,286047013.3,N
1633985595.8,286047009.7,N
1633985615.7,286047010.8,N
1633985635.5,286047010.3,N
1633985655.3,286047008.4,N
1633985675.2,286047005.5,N
1633985695.0,286047003.1,N
1633985695.9,286047003.1,N
1633985715.8,286047004.9,N
1633985735.6,286047004.2,N
1633985755.4,286047003.8,N
1633985775.3,286047000.0,N
1633985795.1,286047000.8,N
1633985815.9,286047000.2,N
1633985835.7,286047000.5,N
1633985855.5,286047001.9,N
1633985875.4,286047002.2,N
1633985895.2,286047000.4,N
1633985915.0,286046999.3,N
1633985915.9,286046999.3,N
1633985935.8,286047001.6,N
1633985955.6,286047003.5,N
1633985975.5,286047004.6,N
1633985995.3,286047005.8,N
